Fort Morgan, CO

10:01 AM MST on January 18, 2018 (GMT -0700)
Fort Morgan

Weather History for KFMM - November, 2013

Change the Weather History Date:

Sunday, November 3, 2013

  Actual Average (KAKO) Record (KAKO)
Temperature  
Mean Temperature 48 °F -  
Max Temperature 67 °F 49 °F 79 °F (2015)
Min Temperature 30 °F 27 °F 2 °F (1967)
Degree Days  
Heating Degree Days 16    
Moisture  
Dew Point 25 °F    
Average Humidity 51    
Maximum Humidity 88    
Minimum Humidity 14    
Precipitation  
Precipitation 0.00 in - - ()
Sea Level Pressure  
Sea Level Pressure 29.66 in    
Wind  
Wind Speed 7 mph (NNW)    
Max Wind Speed 34 mph    
Max Gust Speed 46 mph    
Visibility 10 miles    
Events      
Averages and records for this station are not official NWS values.
T = Trace of Precipitation, MM = Missing Value Source: NWS Daily Summary

Daily Weather History Graph

Daily Weather History Graph

Search for Another Location

Airport or City:

Trip Planner

Search our weather history database for the weather conditions in past years. The results will help you decide how hot, cold, wet, or windy it might be!

Date:

Astronomy

Nov. 03, 2013 Rise Set
Actual Time 6:27 AM MST 4:49 PM MST
Civil Twilight 5:59 AM MST 5:17 PM MST
Nautical Twilight 5:26 AM MST 5:50 PM MST
Astronomical Twilight 4:55 AM MST 6:21 PM MST
Moon 6:34 AM MST (11/3) 5:06 PM MST (11/3)
Length of Visible Light 11h 18m
Length of Day
10h 22m
New Moon, 0% of the Moon is Illuminated
Nov 3
New Moon
Nov 9
First Quarter
Nov 17
Full
Nov 25
Last Quarter
Dec 2
New

Hourly Weather History & Observations

Time (MST) Temp. Windchill Dew Point Humidity Pressure Visibility Wind Dir Wind Speed Gust Speed Precip Events Conditions
12:15 AM 37.2 °F 33.6 °F 22.6 °F 56% 29.74 in 10.0 mi West 4.6 mph - N/A   Clear
12:35 AM 39.2 °F 35.0 °F 23.2 °F 53% 29.74 in 10.0 mi WSW 5.8 mph - N/A   Clear
12:55 AM 37.6 °F 33.1 °F 23.7 °F 57% 29.74 in 10.0 mi WSW 5.8 mph - N/A   Clear
1:15 AM 36.3 °F 31.6 °F 23.9 °F 61% 29.73 in 10.0 mi West 5.8 mph - N/A   Clear
1:35 AM 34.9 °F 30.8 °F 23.7 °F 64% 29.73 in 10.0 mi SW 4.6 mph - N/A   Clear
1:55 AM 34.0 °F - 23.7 °F 66% 29.72 in 10.0 mi Calm Calm - N/A   Clear
1:15 AM 33.3 °F - 23.9 °F 69% 29.72 in 10.0 mi Calm Calm - N/A   Clear
1:35 AM 32.2 °F - 24.1 °F 72% 29.71 in 10.0 mi Calm Calm - N/A   Clear
1:55 AM 33.6 °F 30.6 °F 24.4 °F 69% 29.71 in 10.0 mi West 3.5 mph - N/A   Clear
2:15 AM 31.5 °F 24.2 °F 25.0 °F 77% 29.70 in 10.0 mi West 8.1 mph - N/A   Clear
2:35 AM 33.3 °F 25.7 °F 26.2 °F 75% 29.70 in 10.0 mi NW 9.2 mph - N/A   Clear
2:55 AM 34.0 °F 31.0 °F 26.6 °F 74% 29.69 in 10.0 mi NW 3.5 mph - N/A   Clear
3:15 AM 32.0 °F 27.5 °F 26.4 °F 80% 29.69 in 10.0 mi SW 4.6 mph - N/A   Clear
3:35 AM 31.6 °F - 26.8 °F 82% 29.68 in 10.0 mi Calm Calm - N/A   Clear
3:55 AM 31.1 °F 26.4 °F 26.8 °F 84% 29.67 in 10.0 mi West 4.6 mph - N/A   Clear
4:15 AM 30.9 °F - 26.8 °F 85% 29.67 in 10.0 mi Calm Calm - N/A   Clear
4:35 AM 30.2 °F 21.9 °F 27.0 °F 88% 29.66 in 10.0 mi WSW 9.2 mph - N/A   Clear
4:55 AM 30.7 °F 24.1 °F 27.3 °F 87% 29.65 in 10.0 mi WNW 6.9 mph - N/A   Clear
5:15 AM 31.8 °F 25.4 °F 27.7 °F 85% 29.64 in 10.0 mi West 6.9 mph - N/A   Clear
5:35 AM 31.8 °F 24.6 °F 27.7 °F 85% 29.63 in 10.0 mi WNW 8.1 mph - N/A   Clear
5:55 AM 31.6 °F 23.7 °F 27.5 °F 85% 29.62 in 10.0 mi West 9.2 mph - N/A   Clear
6:15 AM 33.6 °F 26.2 °F 26.8 °F 76% 29.62 in 10.0 mi West 9.2 mph - N/A   Clear
6:35 AM 32.0 °F 23.0 °F 27.3 °F 83% 29.61 in 10.0 mi West 11.5 mph - N/A   Clear
6:55 AM 31.6 °F 27.0 °F 27.5 °F 85% 29.62 in 10.0 mi West 4.6 mph - N/A   Clear
7:15 AM 31.8 °F 26.2 °F 28.2 °F 87% 29.62 in 10.0 mi SW 5.8 mph - N/A   Clear
7:35 AM 32.9 °F 26.7 °F 28.6 °F 84% 29.63 in 10.0 mi West 6.9 mph - N/A   Clear
7:55 AM 35.6 °F 30.7 °F 29.3 °F 78% 29.62 in 10.0 mi NW 5.8 mph - N/A   Clear
8:15 AM 40.8 °F - 30.2 °F 66% 29.63 in 10.0 mi Calm Calm - N/A   Clear
8:35 AM 44.8 °F 43.3 °F 29.8 °F 56% 29.62 in 10.0 mi ENE 3.5 mph - N/A   Clear
8:55 AM 48.9 °F - 28.4 °F 45% 29.63 in 10.0 mi Calm Calm - N/A   Clear
9:15 AM 51.3 °F - 29.8 °F 44% 29.63 in 10.0 mi West 4.6 mph - N/A   Clear
9:35 AM 54.1 °F - 25.7 °F 33% 29.63 in 10.0 mi NE 4.6 mph - N/A   Clear
9:55 AM 55.0 °F - 26.4 °F 33% 29.63 in 10.0 mi Calm Calm - N/A   Clear
10:15 AM 57.9 °F - 27.3 °F 31% 29.63 in 10.0 mi NNE 5.8 mph - N/A   Clear
10:35 AM 59.2 °F - 26.6 °F 29% 29.63 in 10.0 mi North 4.6 mph - N/A   Clear
10:55 AM 62.8 °F - 24.8 °F 24% 29.62 in 10.0 mi North 4.6 mph - N/A   Clear
11:15 AM 65.5 °F - 22.1 °F 19% 29.62 in 10.0 mi NE 9.2 mph - N/A   Clear
11:35 AM 66.0 °F - 17.8 °F 16% 29.61 in 10.0 mi ENE 5.8 mph - N/A   Clear
11:55 AM 67.5 °F - 17.1 °F 14% 29.60 in 10.0 mi East 10.4 mph - N/A   Clear
12:15 PM 67.5 °F - 18.3 °F 15% 29.59 in 10.0 mi ENE 10.4 mph 16.1 mph N/A   Clear
12:35 PM 66.6 °F - 22.6 °F 19% 29.58 in 10.0 mi East 10.4 mph - N/A   Clear
12:55 PM 66.2 °F - 23.7 °F 20% 29.58 in 10.0 mi East 8.1 mph - N/A   Clear
1:15 PM 66.0 °F - 22.6 °F 19% 29.57 in 10.0 mi ESE 5.8 mph - N/A   Clear
1:35 PM 65.5 °F - 22.1 °F 19% 29.58 in 10.0 mi SE 8.1 mph - N/A   Clear
1:55 PM 65.8 °F - 19.0 °F 17% 29.57 in 10.0 mi SE 6.9 mph - N/A   Clear
2:15 PM 66.6 °F - 17.6 °F 15% 29.58 in 10.0 mi SE 8.1 mph - N/A   Clear
2:35 PM 66.4 °F - 16.9 °F 15% 29.58 in 10.0 mi SE 4.6 mph - N/A   Clear
2:55 PM 65.7 °F - 17.4 °F 16% 29.58 in 10.0 mi SE 10.4 mph - N/A   Clear
3:15 PM 65.5 °F - 18.3 °F 16% 29.58 in 10.0 mi SE 8.1 mph - N/A   Clear
3:35 PM 64.8 °F - 18.1 °F 17% 29.58 in 10.0 mi SE 5.8 mph - N/A   Clear
3:55 PM 62.2 °F - 19.8 °F 19% 29.59 in 10.0 mi SE 4.6 mph - N/A   Clear
4:15 PM 59.9 °F - 19.8 °F 21% 29.59 in 10.0 mi SE 5.8 mph - N/A   Clear
4:35 PM 60.1 °F - 17.8 °F 19% 29.59 in 10.0 mi SE 5.8 mph - N/A   Clear
4:55 PM 56.3 °F - 21.7 °F 26% 29.60 in 10.0 mi ENE 8.1 mph - N/A   Clear
5:15 PM 57.2 °F - 21.9 °F 26% 29.61 in 10.0 mi ENE 9.2 mph - N/A   Mostly Cloudy
5:35 PM 54.7 °F - 23.0 °F 29% 29.63 in 10.0 mi ENE 6.9 mph - N/A   Overcast
5:55 PM 53.4 °F - 23.7 °F 32% 29.63 in 10.0 mi NE 15.0 mph - N/A   Mostly Cloudy
6:15 PM 52.9 °F - 25.3 °F 34% 29.67 in 10.0 mi North 18.4 mph - N/A   Mostly Cloudy
6:35 PM 52.7 °F - 26.6 °F 36% 29.67 in 10.0 mi North 18.4 mph 24.2 mph N/A   Overcast
6:55 PM 51.8 °F - 27.3 °F 39% 29.66 in 10.0 mi North 23.0 mph - N/A   Overcast
7:15 PM 49.6 °F - 30.0 °F 47% 29.67 in 10.0 mi North 23.0 mph 27.6 mph N/A   Mostly Cloudy
7:35 PM 47.3 °F - 30.6 °F 52% 29.67 in 10.0 mi North 18.4 mph 25.3 mph N/A   Overcast
8:15 PM 44.4 °F 36.9 °F 30.9 °F 59% 29.71 in 10.0 mi North 17.3 mph - N/A   Clear
8:35 PM 43.0 °F 32.5 °F 31.5 °F 64% 29.73 in 10.0 mi North 29.9 mph 44.9 mph N/A   Scattered Clouds
8:55 PM 39.6 °F 27.9 °F 30.9 °F 71% 29.73 in 10.0 mi North 29.9 mph 46.0 mph N/A   Scattered Clouds
9:15 PM 39.2 °F 26.6 °F 29.1 °F 67% 29.76 in 10.0 mi North 34.5 mph 41.4 mph N/A   Scattered Clouds
9:35 PM 38.3 °F 28.4 °F 28.8 °F 69% 29.80 in 10.0 mi North 19.6 mph 31.1 mph N/A   Scattered Clouds
9:55 PM 37.4 °F 25.0 °F 29.1 °F 72% 29.83 in 10.0 mi NNW 29.9 mph 38.0 mph N/A   Scattered Clouds
10:15 PM 36.7 °F 23.8 °F 29.3 °F 75% 29.82 in 10.0 mi NNW 31.1 mph 39.1 mph N/A   Mostly Cloudy
10:35 PM 35.6 °F 23.0 °F 28.6 °F 76% 29.82 in 10.0 mi NNW 27.6 mph 39.1 mph N/A   Mostly Cloudy
10:55 PM 34.9 °F 21.3 °F 28.8 °F 78% 29.83 in 10.0 mi North 31.1 mph 36.8 mph N/A   Mostly Cloudy